Regional Weather Roundup
Issued by NWS

Home | Current Version | Previous Version | Graphics & Text | Print | Product List | Glossary On
Versions: 1 2 3 4 5 6 7 8 9 10 11 12 13 14 15 16 17 18 19 20 21 22 23 24 25 26 27 28 29 30 31 32 33 34 35 36 37 38 39 40 41 42 43 44 45 46 47 48 49 50
000
ASUS45 KABQ 221110
RWRNM
NEW MEXICO REGIONAL WEATHER ROUNDUP
NATIONAL WEATHER SERVICE ALBUQUERQUE NM
500 AM MDT WED MAR 22 2017

NOTE: "FAIR" MEANS FEW OR NO CLOUDS BELOW 12,000 FEET AGL WITH NO
       SIGNIFICANT WEATHER OR OBSTRUCTIONS TO VISION.

      THIS PRODUCT IS RELEASED AS TWO VERSIONS.  ONE VERSION NEAR
      THE TOP OF THE HOUR CONTAINING PRELIMINARY DATA FROM ALBUQUERQUE
      AND OTHER STATIONS.  A FINAL VERSION WITH ADDITIONAL DATA IS
      ISSUED ABOUT 10 MINUTES AFTER THE HOUR.

NMZ501-503-504-510>518-221200-
NORTHWEST PLATEAU/NORTHCENTRAL MOUNTAINS

CITY           SKY/WX    TMP DP  RH WIND       PRES   REMARKS
FARMINGTON     FAIR      46  30  53 E8        30.08S
LOS ALAMOS     FAIR      50  32  50 SW9       30.22S
SANTA FE       FAIR      47  37  68 SW10      30.17R
TAOS             N/A     37  19  48 E9        30.20R WCI  31
ANGEL FIRE     FAIR      24  22  91 CALM      30.26F

$$
NMZ402-403-502-505>509-221200-
WESTCENTRAL MOUNTAINS/SOUTHWEST MOUNTAINS

CITY           SKY/WX    TMP DP  RH WIND       PRES   REMARKS
GALLUP         FAIR      38  22  52 CALM      30.15F
GRANTS         FAIR      36  20  52 N5        30.18S WCI  32
SILVER CITY    FAIR      45  24  44 N10       30.12S

$$
NMZ407-409-411-412-221200-
SOUTHERN DESERTS

CITY           SKY/WX    TMP DP  RH WIND       PRES   REMARKS
DEMING         FAIR      46  24  42 W7        30.08R
LAS CRUCES     FAIR      51  19  27 CALM      30.08S
HOLLOMAN AFB   FAIR      58  25  27 SE9       30.08S
ALAMOGORDO     FAIR      55  23  28 CALM      30.06S
T OR C         FAIR      52  22  30 W5        30.06S

$$
NMZ519>523-221200-
CENTRAL VALLEYS/CENTRAL HIGHLANDS

CITY           SKY/WX    TMP DP  RH WIND       PRES   REMARKS
ALBUQUERQUE    FAIR      55  27  34 N6        30.12R
DOUBLE EAGLE   FAIR      41  25  54 NW3       30.14R
MORIARTY ARPT  FAIR      37  30  76 NW6       30.20S WCI  32
CLINES CORNERS FAIR      38  34  85 E9        30.23S WCI  31
BELEN          FAIR      45  23  42 NE5       30.11R
SOCORRO        FAIR      48  22  36 CALM      30.08S

$$
NMZ524>526-539-540-221200-
SOUTHCENTRAL MOUNTAINS

CITY           SKY/WX    TMP DP  RH WIND       PRES   REMARKS
RUIDOSO        FAIR      50  19  29 SE5       30.21S

$$
NMZ527>531-221200-
NORTHEAST HIGHLANDS/NORTHEAST PLAINS

CITY           SKY/WX    TMP DP  RH WIND       PRES   REMARKS
LAS VEGAS      FAIR      39  34  82 SW5       30.21F
RATON          FAIR      38  35  89 W7        30.19F WCI  33
CLAYTON        FAIR      38  38 100 CALM      30.20F

$$
NMZ532>537-221200-
EASTCENTRAL PLAINS

CITY           SKY/WX    TMP DP  RH WIND       PRES   REMARKS
SANTA ROSA     FAIR      44  38  80 NE7       30.16S
TUCUMCARI      FAIR      45  39  79 NE8       30.15S
CANNON AFB     FAIR      47  47 100 N10       30.14R
CLOVIS AIRPORT FAIR      43  37  81 N8        30.15R

$$
NMZ028-029-538-221200-
SOUTHEAST PLAINS

CITY           SKY/WX    TMP DP  RH WIND       PRES   REMARKS
ROSWELL        FAIR      54  42  64 N3          N/A
ARTESIA        FAIR      52  30  43 W7        30.07S
CARLSBAD       FAIR      53  43  68 NW9       30.04R
HOBBS          FAIR      54  48  82 NE5       30.09R


$$




USA.gov is the U.S. government's official web portal to all federal, state and local government web resources and services.